WetterOnline ( https://www.wetteronline.at )

Wetter aktuell Bielefeld

Aktuelles Wetter: Bad Salzuflen (139m)

6-stündlich | Neueste Meldungen
Ortszeit Temperatur Wetter
Do, 06.08. 2:00 19.5° C wolkig
Mi, 05.08. 20:00 25.3° C wolkenlos
Mi, 05.08. 14:00 25.6° C wolkig
Mi, 05.08. 8:00 14.6° C wolkig
Mi, 05.08. 2:00 11.7° C wolkig
Di, 04.08. 20:00 19.4° C leicht bewölkt
Di, 04.08. 14:00 19.8° C wolkig
Di, 04.08. 8:00 13.0° C wolkenlos
Ortszeit Temperatur Wetter
Do, 06.08. 2:00 19.5° C wolkig
Do, 06.08. 1:50 19.5° C wolkig
Do, 06.08. 1:40 19.6° C leicht bewölkt
Do, 06.08. 1:30 19.5° C fast wolkenlos
Do, 06.08. 1:20 19.5° C fast wolkenlos
Do, 06.08. 1:10 19.5° C fast wolkenlos
Do, 06.08. 1:00 19.3° C fast wolkenlos
Do, 06.08. 0:30 19.3° C wolkenlos
Do, 06.08. 0:00 19.3° C wolkenlos
Mi, 05.08. 23:30 18.6° C wolkenlos
Mi, 05.08. 23:00 19.3° C wolkenlos
Ortszeit Relative Feuchte Sichtweite
Do, 06.08. 2:00 51% >70 km
Mi, 05.08. 20:00 39% 65 km
Mi, 05.08. 14:00 31% 65 km
Mi, 05.08. 8:00 70% 55 km
Mi, 05.08. 2:00 86% 60 km
Di, 04.08. 20:00 50% >70 km
Di, 04.08. 14:00 53% 60 km
Di, 04.08. 8:00 88% 30 km
Ortszeit Relative Feuchte Sichtweite
Do, 06.08. 2:00 51% >70 km
Do, 06.08. 1:50 51% -
Do, 06.08. 1:40 50% -
Do, 06.08. 1:30 52% 60 km
Do, 06.08. 1:20 52% -
Do, 06.08. 1:10 52% -
Do, 06.08. 1:00 53% 60 km
Do, 06.08. 0:30 54% 60 km
Do, 06.08. 0:00 53% 55 km
Mi, 05.08. 23:30 56% 55 km
Mi, 05.08. 23:00 52% 65 km
Ortszeit Niederschlagsmenge Niederschlagsart
Do, 06.08. 2:00 0.0 l/m2 in 6 Std. -
Mi, 05.08. 20:00 0.0 l/m2 in 12 Std. -
Mi, 05.08. 14:00 0.0 l/m2 in 6 Std. -
Mi, 05.08. 8:00 0.0 l/m2 in 12 Std. -
Mi, 05.08. 2:00 0.0 l/m2 in 6 Std. -
Di, 04.08. 20:00 0.0 l/m2 in 12 Std. -
Di, 04.08. 14:00 0.0 l/m2 in 6 Std. -
Di, 04.08. 8:00 0.0 l/m2 in 12 Std. -
Ortszeit Niederschlagsmenge Niederschlagsart
Do, 06.08. 2:00 0.0 l/m2 in 1 Std. -
Do, 06.08. 1:50 keine Meldung -
Do, 06.08. 1:40 keine Meldung -
Do, 06.08. 1:30 0.0 l/m2 in 1 Std. -
Do, 06.08. 1:20 keine Meldung -
Do, 06.08. 1:10 keine Meldung -
Do, 06.08. 1:00 0.0 l/m2 in 1 Std. -
Do, 06.08. 0:30 0.0 l/m2 in 1 Std. -
Do, 06.08. 0:00 0.0 l/m2 in 1 Std. -
Mi, 05.08. 23:30 0.0 l/m2 in 1 Std. -
Mi, 05.08. 23:00 0.0 l/m2 in 1 Std. -
Ortszeit Stärke Spitze Richtung
km/h Bft. km/h Grad Sektor
Do, 06.08. 2:00 4 1 11 180° S
Mi, 05.08. 20:00 4 1 25 250° W
Mi, 05.08. 14:00 13 3 28 200° S
Mi, 05.08. 8:00 6 1 9 220° SW
Mi, 05.08. 2:00 2 1 7 270° W
Di, 04.08. 20:00 4 1 29 290° W
Di, 04.08. 14:00 9 2 24 250° W
Di, 04.08. 8:00 2 1 9 140° SO
Ortszeit Stärke Spitze Richtung
km/h Bft. km/h Grad Sektor
Do, 06.08. 2:00 4 1 7 180° S
Do, 06.08. 1:50 4 1 - 180° S
Do, 06.08. 1:40 4 1 - 210° SW
Do, 06.08. 1:30 4 1 7 180° S
Do, 06.08. 1:20 4 1 - 180° S
Do, 06.08. 1:10 4 1 - 170° S
Do, 06.08. 1:00 4 1 7 150° SO
Do, 06.08. 0:30 0 0 7 - -
Do, 06.08. 0:00 2 1 7 320° NW
Mi, 05.08. 23:30 4 1 7 10° N
Mi, 05.08. 23:00 4 1 11 10° N
Ortszeit Untergrenze Bedeckung Gattung
total tief tief mittel hoch
Do, 06.08. 2:00 8400 m 8/8 0/8 - - -
Mi, 05.08. 20:00 - 0/8 0/8 - - -
Mi, 05.08. 14:00 10500 m 8/8 0/8 - - -
Mi, 05.08. 8:00 9000 m 8/8 0/8 - - -
Mi, 05.08. 2:00 3600 m 7/8 4/8 - - -
Di, 04.08. 20:00 2400 m 3/8 3/8 - - -
Di, 04.08. 14:00 2100 m 5/8 5/8 - - -
Di, 04.08. 8:00 - 0/8 0/8 - - -
Ortszeit Bedeckungsgrad in Achtel und Wolkenuntergrenze
Do, 06.08. 2:00 4(8400m) 8(9000m)
Do, 06.08. 1:50 4(8400m) 8(9000m)
Do, 06.08. 1:40 3(8400m) 6(9000m) 6(9000m)
Do, 06.08. 1:30 2(9000m)
Do, 06.08. 1:20 2(9000m)
Do, 06.08. 1:10 2(9000m)
Do, 06.08. 1:00 1(9000m)
Do, 06.08. 0:30 keine Wolken
Do, 06.08. 0:00 keine Wolken
Mi, 05.08. 23:30 keine Wolken
Mi, 05.08. 23:00 keine Wolken
Ortszeit Luftdruck NN (hPa) Tendenz (hPa in 3 Std.)
Do, 06.08. 2:00 1018 + 0,6
Mi, 05.08. 20:00 1016 + 0,1
Mi, 05.08. 14:00 1017 - 0,7
Mi, 05.08. 8:00 1018 + 0,6
Mi, 05.08. 2:00 1018 + 0,1
Di, 04.08. 20:00 1016 + 0,3
Di, 04.08. 14:00 1016 + 0,2
Di, 04.08. 8:00 1016 + 1,2
Ortszeit Luftdruck NN (hPa) Tendenz (hPa in 3 Std.)
Do, 06.08. 2:00 1018 + 0,6
Do, 06.08. 1:50 1018 keine Meldung
Do, 06.08. 1:40 1018 keine Meldung
Do, 06.08. 1:30 1018 + 0,6
Do, 06.08. 1:20 1018 keine Meldung
Do, 06.08. 1:10 1018 keine Meldung
Do, 06.08. 1:00 1018 + 0,7
Do, 06.08. 0:30 1018 + 0,9
Do, 06.08. 0:00 1018 + 1,0
Mi, 05.08. 23:30 1017 + 0,9
Mi, 05.08. 23:00 1017 + 0,9
Ortszeit Schneehöhe (cm)
Do, 06.08. 2:00 -
Mi, 05.08. 20:00 -
Mi, 05.08. 14:00 -
Mi, 05.08. 8:00 -
Mi, 05.08. 2:00 -
Di, 04.08. 20:00 -
Di, 04.08. 14:00 -
Di, 04.08. 8:00 -
Ortszeit Schneehöhe (cm)
Do, 06.08. 2:00 -
Do, 06.08. 1:50 -
Do, 06.08. 1:40 -
Do, 06.08. 1:30 -
Do, 06.08. 1:20 -
Do, 06.08. 1:10 -
Do, 06.08. 1:00 -
Do, 06.08. 0:30 -
Do, 06.08. 0:00 -
Mi, 05.08. 23:30 -
Mi, 05.08. 23:00 -
Link zu dieser Seite / Seite empfehlen

Das Wetter in ...